Regional Weather Roundup
Issued by NWS

Home | Current Version | Previous Version | Text Only | Print | Product List | Glossary On
Versions: 1 2 3 4 5 6 7 8 9 10 11 12 13 14 15 16 17 18 19 20 21 22 23 24 25 26 27 28 29 30 31 32 33 34 35 36 37 38 39 40 41 42 43 44 45 46 47 48 49 50
000
ASUS44 KJAN 171710
RWRMS

MISSISSIPPI HOURLY WEATHER ROUNDUP
NATIONAL WEATHER SERVICE JACKSON MS
1200 PM CDT WED SEP 17 2014

NOTE: "FAIR: INDICATES FEW OR NO CLOUDS BELOW 12,000 FEET WITH NO
SIGNIFICANT WEATHER AND/OR OBSTRUCTIONS TO VISIBILITY.

MSZ001>002-007>008-010>013-018>021-025>028-034>036-171800-
NORTHWEST MISSISSIPPI

CITY           SKY/WX    TMP DP  RH WIND       PRES   REMARKS
CLARKSDALE     FAIR      79  66  65 CALM      30.01F
CLEVELAND      FAIR      83  69  63 E5        29.99F
GREENWOOD      SUNNY     84  67  56 VRB3      30.00S
GREENVILLE     MOSUNNY   85  67  54 VRB3      29.99S
GRENADA        FAIR      79  64  61 E5        30.01F
OLIVE BRANCH   CLOUDY    70  63  78 CALM      30.04S
OXFORD         FAIR      73  63  68 NE3       30.04F
TUNICA         CLOUDY    73  63  68 NE3       30.02F
$$

MSZ003>006-009-014>017-022>024-029>033-037>039-171800-
NORTHEAST MISSISSIPPI

CITY           SKY/WX    TMP DP  RH WIND       PRES   REMARKS
COLUMBUS AFB   SUNNY     80  64  57 VRB2      30.00F
CORINTH        PTSUNNY   73  59  60 NE7       30.03S
STARKVILLE     FAIR      79  64  61 CALM      30.01S
TUPELO         PTSUNNY   77  61  57 MISG      30.02S
$$

MSZ040-058-171800-
CENTRAL MISSISSIPPI

CITY           SKY/WX    TMP DP  RH WIND       PRES   REMARKS
JACKSON INTL   MOSUNNY   86  69  56 NE3       29.99S HX  90
JACKSON HAWKNS SUNNY     87  69  54 E6        30.00S HX  91
MERIDIAN KEY   MOSUNNY   87  67  51 VRB6      29.99S HX  90
MERIDIAN NAS   MOSUNNY   85  69  58 N6        30.00S
RAYMOND        FAIR      86  81  84 SE6       29.99S HX 102
VICKSBURG      SUNNY     89  69  51 NE6       29.98F HX  93
$$

MSZ059>079-171800-
SOUTH MISSISSIPPI

CITY           SKY/WX    TMP DP  RH WIND       PRES   REMARKS
BROOKHAVEN     FAIR      84  72  65 N3        30.01S
HATTIESBURG    SUNNY     87  70  56 VRB5      29.98F HX  92
MCCOMB         PTSUNNY   84  71  65 VRB3      29.99F
NATCHEZ        SUNNY     84  72  65 CALM      29.99F
PINE BELT      MOSUNNY   86  70  58 E5        30.00S HX  90
$$

MSZ080>082-171800-
COASTAL MISSISSIPPI

CITY           SKY/WX    TMP DP  RH WIND       PRES   REMARKS
BAY ST LOUIS   MOSUNNY   82  72  69 NE3       29.98S
BILOXI         PTSUNNY   84  73  69 VRB2      29.97S HX  90
PASCAGOULA     MOSUNNY   85  71  63 CALM      29.96F HX  90
GULFPORT       PTSUNNY   85  72  65 N5        29.96F HX  91
$$


USA.gov is the U.S. government's official web portal to all federal, state and local government web resources and services.